New York, NY

2:23 AM EDT on September 18, 2019 (GMT -0400)
La Guardia

Weather History for KLGA - August, 2019

Change the Weather History Date:

Monday, August 19, 2019

  Actual Average Record
Temperature  
Mean Temperature 84 °F 76 °F  
Max Temperature 93 °F 84 °F 94 °F (1966)
Min Temperature 75 °F 69 °F 59 °F (1977)
Degree Days  
Heating Degree Days 0 0  
Month to date heating degree days 0 0  
Since 1 June heating degree days 4 16  
Since 1 July heating degree days 0 0  
Cooling Degree Days 19 11  
Month to date cooling degree days 274 229  
Year to date cooling degree days 1099 911  
Since 1 June cooling degree days 1037 845  
Growing Degree Days 34 (Base 50)    
Moisture  
Dew Point 68 °F    
Average Humidity 61    
Maximum Humidity 74    
Minimum Humidity 47    
Precipitation  
Precipitation 0.00 in 0.13 in 2.74 in (1991)
Month to date precipitation 1.45 2.64  
Year to date precipitation 34.15 28.77  
Snow  
Snow 0.00 in 0.00 in - ()
Month to date snowfall 0.0 0.0  
Since 1 July snowfall 0.0 0.0  
Snow Depth 0.00 in    
Sea Level Pressure  
Sea Level Pressure 29.96 in    
Wind  
Wind Speed 7 mph (SSW)    
Max Wind Speed 22 mph    
Max Gust Speed 29 mph    
Visibility 10 miles    
Events Rain , Thunderstorm    
T = Trace of Precipitation, MM = Missing Value Source: NWS Daily Summary

Daily Weather History Graph

Daily Weather History Graph

Search for Another Location

Airport or City:

Astronomy

Aug. 19, 2019 Rise Set
Actual Time 6:09 AM EDT 7:48 PM EDT
Civil Twilight 5:40 AM EDT 8:17 PM EDT
Nautical Twilight 5:05 AM EDT 8:52 PM EDT
Astronomical Twilight 4:27 AM EDT 9:29 PM EDT
Moon 10:06 PM EDT (8/19) 9:49 AM EDT (8/19)
Length of Visible Light 14h 36m
Length of Day
13h 38m
Waning Gibbous, 85% of the Moon is Illuminated
Aug 19
Waning Gibbous
Aug 23
Last Quarter
Aug 30
New
Sep 5
First Quarter
Sep 14
Full

Hourly Weather History & Observations

Time (EDT) Temp. Heat Index Dew Point Humidity Pressure Visibility Wind Dir Wind Speed Gust Speed Precip Events Conditions
12:51 AM 78.1 °F - 62.1 °F 58% 29.95 in 10.0 mi South 8.1 mph - N/A   Scattered Clouds
1:51 AM 75.9 °F - 66.0 °F 71% 29.95 in 10.0 mi WSW 3.5 mph - N/A   Scattered Clouds
2:51 AM 77.0 °F - 66.9 °F 71% 29.94 in 10.0 mi South 4.6 mph - N/A   Mostly Cloudy
3:51 AM 77.0 °F - 68.0 °F 74% 29.96 in 10.0 mi WSW 4.6 mph - N/A   Mostly Cloudy
4:51 AM 75.9 °F - 66.9 °F 74% 29.97 in 10.0 mi NW 4.6 mph - N/A   Mostly Cloudy
5:51 AM 75.0 °F - 66.9 °F 76% 29.98 in 10.0 mi NE 3.5 mph - N/A   Mostly Cloudy
6:51 AM 75.9 °F - 66.9 °F 74% 29.99 in 10.0 mi East 5.8 mph - N/A   Mostly Cloudy
7:51 AM 77.0 °F - 68.0 °F 74% 29.99 in 10.0 mi Variable 3.5 mph - N/A   Partly Cloudy
8:51 AM 81.0 °F 84.1 °F 69.1 °F 67% 29.98 in 10.0 mi North 3.5 mph - N/A   Scattered Clouds
9:51 AM 82.9 °F 87.5 °F 71.1 °F 67% 29.98 in 10.0 mi SW 10.4 mph - N/A   Mostly Cloudy
10:51 AM 84.9 °F 90.7 °F 72.0 °F 65% 29.98 in 10.0 mi NW 4.6 mph - N/A   Partly Cloudy
11:51 AM 87.1 °F 92.8 °F 71.1 °F 59% 29.97 in 10.0 mi West 5.8 mph - N/A   Partly Cloudy
12:51 PM 90.0 °F 94.5 °F 69.1 °F 50% 29.97 in 10.0 mi SW 13.8 mph - N/A   Partly Cloudy
1:51 PM 91.0 °F 95.2 °F 68.0 °F 47% 29.96 in 10.0 mi SSW 10.4 mph - N/A   Partly Cloudy
2:51 PM 91.9 °F 96.9 °F 69.1 °F 47% 29.93 in 10.0 mi SW 13.8 mph 19.6 mph N/A   Scattered Clouds
3:10 PM 91.0 °F 99.3 °F 73.0 °F 55% 29.92 in 10.0 mi South 15.0 mph - N/A   Scattered Clouds
3:51 PM 87.1 °F 94.5 °F 73.0 °F 63% 29.92 in 10.0 mi South 20.7 mph 25.3 mph N/A   Scattered Clouds
3:59 PM 88.0 °F 95.6 °F 73.0 °F 61% 29.91 in 10.0 mi South 17.3 mph 24.2 mph N/A Thunderstorm Mostly Cloudy
4:35 PM 89.1 °F 94.1 °F 70.0 °F 53% 29.89 in 10.0 mi South 20.7 mph 26.5 mph N/A Thunderstorm Thunderstorm
4:51 PM 88.0 °F 88.7 °F 63.0 °F 43% 29.91 in 10.0 mi South 15.0 mph 24.2 mph N/A Thunderstorm Thunderstorm
5:29 PM 84.0 °F 87.8 °F 69.1 °F 61% 29.95 in 10.0 mi ESE 10.4 mph 20.7 mph N/A Thunderstorm Mostly Cloudy
5:51 PM 84.0 °F 87.0 °F 68.0 °F 58% 29.95 in 10.0 mi SSE 8.1 mph 21.9 mph N/A   Mostly Cloudy
6:51 PM 82.9 °F 85.8 °F 68.0 °F 60% 29.96 in 10.0 mi South 12.7 mph - N/A   Mostly Cloudy
7:51 PM 81.0 °F 83.8 °F 68.0 °F 65% 29.96 in 10.0 mi SSW 5.8 mph - N/A   Mostly Cloudy
8:51 PM 82.0 °F 84.9 °F 68.0 °F 62% 29.97 in 10.0 mi SSW 6.9 mph - N/A   Scattered Clouds
9:51 PM 82.0 °F 84.9 °F 68.0 °F 62% 29.99 in 10.0 mi WNW 3.5 mph - N/A   Scattered Clouds
10:51 PM 82.0 °F 85.5 °F 69.1 °F 65% 29.99 in 10.0 mi WNW 4.6 mph - N/A   Partly Cloudy